CZ-6A DEB

Satellite information

Favourite Embed

Satellite Type and Status

DEBRISIN ORBIT

Key statistics

Satellite CZ-6A DEB at a glance.

Uptime

494

Days in orbit

Revolutions

≈ 14.2

Per day

Orbit

LEO

Low Earth Orbit

Inclination

89.4

Latest

Satellite identification and parameters

Extended collection of information and parameters for CZ-6A DEB.

Object identification

Identified? True

Debris? True

Object name: CZ-6A DEB

International designator: 2024-140DE

Object number (NORAD): 60701

Object ID (CCSDS): 60701

Country: PEOPLES REPUBLIC OF CHINA (PRC)

Current information (Y/N): Y

RCS size: SMALL

Orbital parameters

Period: 101.366 minutes

Inclination: 89.3643 deg

SMA: 7201.494 km

Apoapsis: 890.351 km

Periapsis: 756.368 km

RAAN: 316.668 deg

Eccentricy: 0.00930245

Argument of periapsis: 128.8117 deg

Mean anomaly: 232.1427 deg

Mean motion: 14.20590208 rev/day

Mean motion (dot): 0.0000238 rev/day2

B* drag term: 0.0010539529 1/REarth

Two-line elements (TLE)

Creation date: Dec. 12, 2025, 10:14 a.m.

Reference frame: TEME

Reference center: EARTH

Epoch: Dec. 12, 2025, 4:41 a.m. UTC

TLE line 0: 0 CZ-6A DEB

TLE line 1: 1 60701U 24140DE 25346.19517986 .00002380 00000-0 10540-2 0 9996

TLE line 2: 2 60701 89.3643 316.6680 0093024 128.8117 232.1427 14.20590208 69136

Live tracking on map

Real-time ground track for satellite CZ-6A DEB.

In-orbit conjunctions

A list of the most updated potential collisions computed for object CZ-6A DEB.

Target Orbit TCA Probability of collision Miss distance Type
IRIDIUM 26 LEO 2025-03-23 22:31:33 0.0002573081 180.0 (m) PAYLOAD
METEOR 2-17 DEB LEO 2025-01-11 05:37:56 0.0003428539 134.0 (m) DEBRIS
CZ-6A DEB SSO 2024-11-02 05:58:26 0.000166914 664.0 (m) DEBRIS
METEOR 2-11 DEB LEO 2024-09-28 20:42:35 0.0002171969 347.0 (m) DEBRIS
CZ-6 R/B LEO 2024-09-21 02:57:55 0.00017291 608.0 (m) ROCKET BODY

Associated space launch

18 Low Earth Orbit communication satellites with Ku, Q and V band payloads for the G60 constellation operated by Shanghai Spacecom Satellite Technology (SSST) with funding backed by the Shanghai local government. Initial constellation will consist of 1296 satellites by 2027 with long term plans to expand it to 12000 satellites.

CZ-6A DEB was lifted into orbit during the mission ‘Long March 6A | G60 Polar Group 01’, on board a Long March 6A space rocket.

The launch took place on Aug. 6, 2024, 6:42 a.m. from Launch Complex 9A.

For more information about the launch, click the button.

Launch to space Long March 6A | G60 Polar Group 01
Long March 6A | G60 Polar Group 01

Agency: N/A

Status: Launch Successful

Launch date: Aug. 6, 2024, 6:42 a.m. UTC

Rocket: Long March 6A

Launch pad: Launch Complex 9A

Location: Taiyuan Satellite Launch Center, People's Republic of China

...

Latest news about this satellite

News about space launch
Brightness of first Chinese broadband constellation satellites alarms astronomers

The first satellites of a Chinese broadband constellation are significantly brighter than those of Western systems, posing a new challenge for astronomers.

News about space launch
Chinese rocket stage breaks up into cloud of more than 700 pieces of space debris

HELSINKI — A Chinese Long March 6A rocket’s upper stage has fragmented into a cloud of over 700 pieces of space debris, adding to concerns about long-term orbital safety. China […]

News about space launch
China's Thousand Sails Megaconstellation Kicks Off with Dangerous Debris Field

China's Thousand Sails Megaconstellation Kicks Off with Dangerous Debris Field


Newsletter sign-up

Weekly statistics, charts and insights to help you stay on top of the space industry.